This demonstration page uses our WeatherBlox Daily Observations layout. Learn more.

Left ArrowRight Arrow

Hourly Observations for January 3, 2015

Temp ( °F °C ) Dew Point ( °F °C ) Humidity (%) Winds ( mph kmh ) Pressure ( in mb ) Visibility ( mi km ) Precip ( " mm )
12:15 am 00:15 Cloudy 34 1 28 -2 81 81 SE 8 13 30.24 1024 7 11.26538 N/A
12:35 am 00:35 Mostly Cloudy 34 1 28 -2 81 81 SSE 9 15 30.24 1024 7 11.26538 N/A
12:55 am 00:55 Cloudy 34 1 34 1 100 100 SE 8 13 30.24 1024 4 6.43736 N/A
1:15 am 01:15 Cloudy 34 1 34 1 100 100 SE 8 13 30.24 1024 2.5 4.02335 N/A
1:36 am 01:36 Cloudy 34 1 34 1 100 100 SE 10 17 30.21 1023 3 4.82802 N/A
1:55 am 01:55 Cloudy 34 1 N/A N/A ESE 9 15 30.18 1022 4 6.43736 N/A
2:15 am 02:15 Cloudy 34 1 N/A N/A SE 9 15 30.21 1023 4 6.43736 N/A
2:35 am 02:35 Cloudy 34 1 N/A N/A SE 9 15 30.18 1022 3 4.82802 N/A
2:55 am 02:55 Cloudy 34 1 N/A N/A SE 6 9 30.18 1022 2.5 4.02335 N/A
3:16 am 03:16 Cloudy 34 1 N/A N/A SE 6 9 30.18 1022 3 4.82802 N/A
3:35 am 03:35 Cloudy 34 1 N/A N/A SE 7 11 30.18 1022 4 6.43736 N/A
3:55 am 03:55 Cloudy 34 1 N/A N/A SE 6 9 30.15 1021 4 6.43736 N/A
4:15 am 04:15 Cloudy 34 1 N/A N/A ESE 7 11 30.15 1021 4 6.43736 N/A
4:35 am 04:35 Cloudy 34 1 N/A N/A Calm 30.15 1021 3 4.82802 N/A
4:56 am 04:56 Cloudy 34 1 N/A N/A ESE 6 9 30.12 1020 3 4.82802 N/A
5:15 am 05:15 Cloudy 34 1 N/A N/A ESE 5 7 30.12 1020 3 4.82802 N/A
5:35 am 05:35 Cloudy 34 1 N/A N/A SE 7 11 30.09 1019 4 6.43736 N/A
5:56 am 05:56 Cloudy 36 2 N/A N/A SE 8 13 30.06 1018 5 8.0467 N/A
6:15 am 06:15 Cloudy 36 2 N/A N/A SE 8 13 30.06 1018 5 8.0467 N/A
6:35 am 06:35 Cloudy 36 2 N/A N/A SE 7 11 30.06 1018 7 11.26538 N/A
6:55 am 06:55 Cloudy 36 2 N/A N/A SE 6 9 30.06 1018 5 8.0467 N/A
7:15 am 07:15 Cloudy 36 2 N/A N/A SE 3 6 30.06 1018 5 8.0467 N/A
7:35 am 07:35 Cloudy 36 2 N/A N/A SE 3 6 30.06 1018 4 6.43736 N/A
7:55 am 07:55 Cloudy 36 2 N/A N/A SE 6 9 30.06 1018 3 4.82802 N/A
8:15 am 08:15 Cloudy 36 2 N/A N/A SE 6 9 30.03 1017 3 4.82802 N/A
8:36 am 08:36 Cloudy 36 2 N/A N/A SE 6 9 30.03 1017 3 4.82802 N/A
8:55 am 08:55 Cloudy 37 3 N/A N/A SSE 5 7 30 1016 3 4.82802 N/A
9:15 am 09:15 Cloudy 37 3 N/A N/A SE 9 15 29.97 1015 2.5 4.02335 N/A
9:35 am 09:35 Cloudy 37 3 N/A N/A SSE 9 15 30 1016 1.25 2.011675 N/A
9:55 am 09:55 Cloudy 39 4 N/A N/A SSE 7 11 29.97 1015 2.5 4.02335 N/A
10:15 am 10:15 Cloudy 39 4 N/A N/A SSE 7 11 29.97 1015 4 6.43736 N/A
10:35 am 10:35 Cloudy 39 4 N/A N/A S 8 13 30 1016 4 6.43736 N/A
10:55 am 10:55 Cloudy 39 4 N/A N/A SSE 6 9 29.97 1015 1.5 2.41401 N/A
11:15 am 11:15 Cloudy 41 5 N/A N/A SSE 9 15 29.94 1014 7 11.26538 N/A
11:35 am 11:35 Cloudy 41 5 N/A N/A S 12 19 29.94 1014 7 11.26538 N/A
11:55 am 11:55 Cloudy 43 6 N/A N/A S 14 22 29.91 1013 10 16.0934 N/A
12:15 pm 12:15 Cloudy 43 6 N/A N/A S 13 20 29.91 1013 10 16.0934 N/A
12:36 pm 12:36 Cloudy 45 7 N/A N/A S 12 19 29.88 1012 7 11.26538 N/A
12:55 pm 12:55 Cloudy 45 7 N/A N/A S 10 17 29.85 1011 7 11.26538 N/A
1:15 pm 13:15 Cloudy 45 7 N/A N/A S 8 13 29.85 1011 7 11.26538 N/A
1:35 pm 13:35 Cloudy 45 7 N/A N/A S 9 15 29.85 1011 7 11.26538 N/A
1:55 pm 13:55 Cloudy 46 8 N/A N/A S 10 17 29.83 1010 7 11.26538 N/A
2:15 pm 14:15 Cloudy 46 8 N/A N/A S 10 17 29.8 1009 10 16.0934 N/A
2:35 pm 14:35 Cloudy 46 8 N/A N/A S 12 19 29.8 1009 10 16.0934 N/A
2:56 pm 14:56 Cloudy 46 8 N/A N/A S 9 15 29.8 1009 10 16.0934 N/A
3:15 pm 15:15 Cloudy 48 9 N/A N/A S 10 17 29.74 1007 10 16.0934 N/A
3:35 pm 15:35 Cloudy 48 9 N/A N/A S 9 15 29.74 1007 3 4.82802 N/A
3:55 pm 15:55 Cloudy 48 9 N/A N/A S 9 15 29.74 1007 5 8.0467 N/A
4:15 pm 16:15 Cloudy 50 10 N/A N/A S 10 17 29.74 1007 10 16.0934 N/A
4:35 pm 16:35 Cloudy 50 10 N/A N/A S 16 26 29.74 1007 10 16.0934 N/A
4:55 pm 16:55 Cloudy 50 10 N/A N/A S 15 24 29.74 1007 10 16.0934 N/A
5:15 pm 17:15 Cloudy 52 11 N/A N/A S 12 19 29.74 1007 7 11.26538 N/A
5:35 pm 17:35 Cloudy 52 11 N/A N/A S 13 20 29.74 1007 10 16.0934 N/A
5:56 pm 17:56 Cloudy 52 11 N/A N/A S 14 22 29.77 1008 10 16.0934 N/A
6:15 pm 18:15 Cloudy 52 11 N/A N/A SSW 10 17 29.77 1008 3 4.82802 N/A
6:35 pm 18:35 Cloudy 52 11 N/A N/A W 8 13 29.77 1008 2 3.21868 N/A
6:55 pm 18:55 Cloudy 52 11 N/A N/A W 5 7 29.8 1009 1.5 2.41401 N/A
7:15 pm 19:15 Cloudy 50 10 N/A N/A WSW 3 6 29.8 1009 0.5 0.80467 N/A
7:35 pm 19:35 Cloudy 52 11 N/A N/A W 8 13 29.8 1009 3 4.82802 N/A
7:55 pm 19:55 Cloudy 50 10 N/A N/A W 8 13 29.8 1009 2.5 4.02335 N/A
8:16 pm 20:16 Cloudy 48 9 N/A N/A SSW 5 7 29.83 1010 1 1.60934 N/A
8:35 pm 20:35 Cloudy 48 9 N/A N/A SW 6 9 29.83 1010 3 4.82802 N/A
8:55 pm 20:55 Mostly Cloudy 48 9 N/A N/A SSW 6 9 29.83 1010 7 11.26538 N/A
9:15 pm 21:15 Partly Cloudy 48 9 N/A N/A SW 6 9 29.83 1010 10 16.0934 N/A
9:35 pm 21:35 Mostly Cloudy 46 8 N/A N/A WSW 6 9 29.83 1010 7 11.26538 N/A
9:56 pm 21:56 Cloudy 46 8 N/A N/A WSW 5 7 29.8 1009 2.5 4.02335 N/A
10:15 pm 22:15 Cloudy 46 8 N/A N/A SW 6 9 29.8 1009 2 3.21868 N/A
10:35 pm 22:35 Cloudy 48 9 N/A N/A SW 10 17 29.8 1009 7 11.26538 N/A
10:55 pm 22:55 Cloudy 48 9 N/A N/A WSW 12 19 29.8 1009 7 11.26538 N/A
11:15 pm 23:15 Cloudy 48 9 N/A N/A SW 8 13 29.8 1009 5 8.0467 N/A
11:36 pm 23:36 Cloudy 48 9 N/A N/A SW 7 11 29.74 1007 2.5 4.02335 N/A
11:55 pm 23:55 Cloudy 48 9 N/A N/A WSW 7 11 29.8 1009 1 1.60934 N/A

Powered by AerisWeather